Stations météo

réclame
Mon MeteoGroup
Neuburg/Donau, Allemagne (10853): Température de l'air & dewpoint: 19.09.2018 09:00:00 - 25.09.2018 09:00:00 (CEST)Neuburg/Donau, Allemagne (10853): Vitesse du vent & gusts: 19.09.2018 09:00:00 - 25.09.2018 09:00:00 (CEST)Neuburg/Donau, Allemagne (10853): Direction du vent: 19.09.2018 09:00:00 - 25.09.2018 09:00:00 (CEST)Neuburg/Donau, Allemagne (10853): reduced air pressure: 19.09.2018 09:00:00 - 25.09.2018 09:00:00 (CEST)Neuburg/Donau, Allemagne (10853): visibility: 19.09.2018 09:00:00 - 25.09.2018 09:00:00 (CEST)
Date & Time tt [°C] td [°C] ff [km/h] ff [knt] fx [km/h] fx [knt] dd ppp [hPa] vv [km]
25.09.2018 09:00:00 5,5 3,9 4 2 - - N 1039,3 50
25.09.2018 08:00:00 2,9 2,5 4 2 - - NW 1039,0 50
25.09.2018 07:00:00 2,5 2,0 0 0 - - N 1038,6 40
25.09.2018 06:00:00 2,7 2,0 0 0 - - N 1038,2 35
25.09.2018 05:00:00 2,7 1,7 4 2 - - N 1037,9 40
25.09.2018 04:00:00 4,5 3,0 4 2 - - N 1037,1 40
25.09.2018 03:00:00 4,9 2,9 7 4 - - NNW 1037,0 40
25.09.2018 02:00:00 6,2 3,2 7 4 - - WNW 1036,7 40
25.09.2018 01:00:00 6,9 3,4 7 4 - - WNW 1036,0 35
25.09.2018 00:00:00 5,9 2,9 7 4 - - WSW 1036,0 35
24.09.2018 23:00:00 5,6 3,3 7 4 - - W 1035,7 35
24.09.2018 22:00:00 6,7 3,1 7 4 - - WNW 1034,9 35
24.09.2018 21:00:00 7,4 2,4 7 4 - - W 1034,6 45
24.09.2018 20:00:00 9,5 2,1 11 6 - - W 1033,4 60
24.09.2018 19:00:00 11,5 1,5 11 6 - - WNW 1032,6 60
24.09.2018 18:00:00 11,9 0,4 14 8 - - WNW 1032,0 60
24.09.2018 17:00:00 12,5 -0,2 18 10 - - WNW 1031,9 60
24.09.2018 16:00:00 12,2 0,0 14 8 - - WNW 1032,0 60
24.09.2018 15:00:00 13,8 1,6 18 10 - - WNW 1031,6 60
24.09.2018 14:00:00 12,0 1,4 18 10 - - WNW 1032,2 60
24.09.2018 13:00:00 12,4 2,3 22 12 - - WNW 1032,0 60
24.09.2018 12:00:00 11,2 3,9 18 10 - - WNW 1032,2 60
24.09.2018 11:00:00 10,5 4,3 22 12 - - WNW 1032,1 60
24.09.2018 10:00:00 9,6 4,3 22 12 - - W 1031,4 60
24.09.2018 09:00:00 8,5 4,5 14 8 - - WNW 1030,5 60
24.09.2018 08:00:00 7,6 4,6 22 12 - - WNW 1029,0 50
24.09.2018 07:00:00 7,4 4,6 14 8 - - WNW 1027,8 50
24.09.2018 06:00:00 7,7 4,8 18 10 - - NW 1027,1 50
24.09.2018 05:00:00 8,3 4,7 14 8 - - WNW 1026,3 50
24.09.2018 04:00:00 8,7 4,8 22 12 - - WNW 1025,6 50
24.09.2018 03:00:00 9,0 5,4 22 12 - - WNW 1024,6 50
24.09.2018 02:00:00 9,5 5,6 14 8 - - WNW 1023,2 50
24.09.2018 01:00:00 10,6 7,0 22 12 - - WNW 1021,2 50
24.09.2018 00:00:00 11,3 8,5 26 14 58 31 NW 1017,6 10
23.09.2018 23:00:00 13,0 11,3 29 16 - - WNW 1013,2 20
23.09.2018 22:00:00 14,4 13,5 25 14 54 29 WNW 1011,2 18
23.09.2018 21:00:00 14,7 13,7 28 15 61 33 W 1009,3 8
23.09.2018 20:00:00 18,5 11,2 46 25 - - WNW 1006,8 4,0
23.09.2018 19:00:00 24,4 14,5 36 19 65 35 WSW 1003,8 50
23.09.2018 18:00:00 24,5 15,1 32 18 79 43 WSW 1004,3 70
23.09.2018 17:00:00 25,0 15,3 36 19 - - WSW 1005,5 70
23.09.2018 16:00:00 24,6 16,1 25 14 47 25 WSW 1007,2 70
23.09.2018 15:00:00 23,4 15,8 29 16 50 27 SW 1009,4 60
23.09.2018 14:00:00 22,5 16,9 25 14 - - WSW 1010,8 45
23.09.2018 13:00:00 18,3 16,3 16 9 - - WSW 1013,1 6
23.09.2018 12:00:00 19,0 15,4 22 12 - - SW 1013,6 35
23.09.2018 11:00:00 17,0 14,7 14 8 - - SW 1014,6 35
23.09.2018 10:00:00 13,4 13,0 5 3 - - SSW 1015,9 9
23.09.2018 09:00:00 12,2 11,7 7 4 - - SSE 1016,4 6
23.09.2018 08:00:00 11,5 11,0 7 4 - - SE 1017,0 8
23.09.2018 07:00:00 11,0 10,6 7 4 - - SSE 1018,0 9
23.09.2018 06:00:00 11,0 10,6 7 4 - - S 1018,8 4,0
23.09.2018 05:00:00 11,2 10,4 7 4 - - S 1019,9 20
23.09.2018 04:00:00 11,4 9,8 11 6 - - SSW 1020,5 40
23.09.2018 03:00:00 11,5 9,0 11 6 - - SSW 1020,9 40
23.09.2018 02:00:00 11,7 9,4 4 2 - - N 1021,2 30
23.09.2018 01:00:00 11,9 9,8 4 2 - - NNW 1021,2 30
23.09.2018 00:00:00 12,3 9,4 7 4 - - NW 1021,1 30
22.09.2018 23:00:00 12,8 10,0 4 2 - - WNW 1020,9 40
22.09.2018 22:00:00 12,4 9,2 4 2 - - N 1020,9 40
22.09.2018 21:00:00 13,7 7,3 4 2 - - N 1021,0 50
22.09.2018 20:00:00 14,5 6,6 7 4 - - S 1020,2 60
22.09.2018 19:00:00 16,2 3,9 7 4 - - W 1020,1 70
22.09.2018 18:00:00 17,2 2,8 14 8 - - W 1020,1 70
22.09.2018 17:00:00 17,3 2,2 14 8 - - WSW 1020,6 65
22.09.2018 16:00:00 17,0 2,8 18 10 - - SW 1021,1 60
22.09.2018 15:00:00 16,7 3,7 14 8 - - WSW 1021,7 60
22.09.2018 14:00:00 16,4 4,1 14 8 - - W 1022,8 55
22.09.2018 13:00:00 15,0 5,1 22 12 - - WSW 1023,3 50
22.09.2018 12:00:00 14,5 5,0 22 12 - - WSW 1024,2 50
22.09.2018 11:00:00 13,4 6,9 18 10 - - WSW 1024,4 50
22.09.2018 10:00:00 12,4 7,3 11 6 - - W 1024,8 45
22.09.2018 09:00:00 11,2 7,4 11 6 - - SW 1024,5 40
22.09.2018 08:00:00 9,1 7,2 4 2 - - N 1024,6 40
22.09.2018 07:00:00 8,7 7,0 4 2 - - ENE 1024,4 40
22.09.2018 06:00:00 8,7 6,6 7 4 - - S 1023,9 35
22.09.2018 05:00:00 10,9 7,1 7 4 - - SSW 1023,4 30
22.09.2018 04:00:00 11,6 7,6 11 6 - - WSW 1023,1 35
22.09.2018 03:00:00 11,9 7,9 7 4 - - WSW 1022,5 35
22.09.2018 02:00:00 12,1 8,4 11 6 - - SW 1022,1 40
22.09.2018 01:00:00 12,4 8,9 11 6 - - WSW 1021,2 40
22.09.2018 00:00:00 12,5 9,0 18 10 - - W 1020,1 40
21.09.2018 23:00:00 12,6 9,5 18 10 - - W 1019,3 35
21.09.2018 22:00:00 13,0 8,6 22 12 - - W 1017,9 25
21.09.2018 21:00:00 14,0 9,6 22 12 54 29 WNW 1016,5 20
21.09.2018 20:00:00 18,4 13,9 32 18 - - WNW 1012,4 25
21.09.2018 19:00:00 19,9 15,5 22 12 - - W 1010,7 20
21.09.2018 18:00:00 19,7 15,2 32 18 54 29 W 1010,7 15
21.09.2018 17:00:00 26,7 10,9 25 14 - - SW 1008,3 30
21.09.2018 16:00:00 27,3 11,3 18 10 47 25 WSW 1008,7 35
21.09.2018 15:00:00 28,2 12,0 25 14 50 27 WSW 1008,8 35
21.09.2018 14:00:00 26,8 11,9 25 14 - - WSW 1009,8 35
21.09.2018 13:00:00 26,8 14,0 11 6 - - SW 1010,5 35
21.09.2018 12:00:00 24,6 14,8 11 6 - - SW 1011,6 35
21.09.2018 11:00:00 20,4 14,5 7 4 - - N 1012,9 35
21.09.2018 10:00:00 16,8 13,7 4 2 - - N 1013,9 25
21.09.2018 09:00:00 13,7 13,5 0 0 - - N 1014,5 9
21.09.2018 08:00:00 10,5 10,3 4 2 - - N 1015,2 0,2
21.09.2018 07:00:00 9,7 9,5 4 2 - - ESE 1015,1 0,1
21.09.2018 06:00:00 9,4 9,1 4 2 - - SSW 1015,4 0,2
21.09.2018 05:00:00 10,7 10,5 0 0 - - N 1015,7 1,6
21.09.2018 04:00:00 11,8 11,3 4 2 - - W 1015,7 2,0
21.09.2018 03:00:00 12,4 11,9 0 0 - - N 1015,8 30
21.09.2018 02:00:00 13,8 13,0 4 2 - - NE 1016,0 30
21.09.2018 01:00:00 14,6 13,4 4 2 - - NNE 1016,3 35
21.09.2018 00:00:00 15,2 13,4 7 4 - - NNE 1016,8 35
20.09.2018 23:00:00 16,1 13,7 4 2 - - NNE 1017,1 40
20.09.2018 22:00:00 16,9 13,4 0 0 - - N 1017,2 40
20.09.2018 21:00:00 19,1 13,1 0 0 - - N 1017,0 40
20.09.2018 20:00:00 21,1 13,3 7 4 - - ESE 1016,6 40
20.09.2018 19:00:00 25,0 12,4 7 4 - - SE 1015,8 50
20.09.2018 18:00:00 26,9 12,1 11 6 - - SE 1016,0 50
20.09.2018 17:00:00 27,6 11,9 7 4 - - ESE 1016,2 45
20.09.2018 16:00:00 27,7 11,5 7 4 - - SSE 1016,9 45
20.09.2018 15:00:00 27,4 12,1 11 6 - - S 1017,4 40
20.09.2018 14:00:00 26,6 13,1 7 4 - - S 1018,3 35
20.09.2018 13:00:00 25,1 15,2 4 2 - - SSE 1019,1 30
20.09.2018 12:00:00 22,5 14,6 4 2 - - N 1020,3 25
20.09.2018 11:00:00 20,0 14,2 4 2 - - SSE 1021,1 20
20.09.2018 10:00:00 16,9 14,2 4 2 - - SSE 1021,7 15
20.09.2018 09:00:00 13,5 13,2 0 0 - - N 1022,3 4,0
20.09.2018 08:00:00 11,7 11,5 4 2 - - ESE 1022,2 0,3
20.09.2018 07:00:00 10,9 10,7 4 2 - - ESE 1022,1 0,5
20.09.2018 06:00:00 11,2 11,0 0 0 - - N 1021,9 0,5
20.09.2018 05:00:00 11,2 11,0 4 2 - - SE 1021,9 0,8
20.09.2018 04:00:00 11,9 11,5 4 2 - - WSW 1021,9 30
20.09.2018 03:00:00 12,3 11,6 4 2 - - SW 1021,8 30
20.09.2018 02:00:00 13,3 12,6 4 2 - - NW 1021,8 30
20.09.2018 01:00:00 14,0 13,3 4 2 - - NE 1021,5 40
20.09.2018 00:00:00 14,7 13,9 4 2 - - NNE 1021,7 40
19.09.2018 23:00:00 15,0 13,7 0 0 - - N 1021,7 45
19.09.2018 22:00:00 16,0 13,6 4 2 - - N 1021,4 45
19.09.2018 21:00:00 17,6 14,0 4 2 - - NW 1021,0 45
19.09.2018 20:00:00 19,9 13,8 0 0 - - N 1020,2 45
19.09.2018 19:00:00 23,9 14,6 4 2 - - SSE 1019,3 10
19.09.2018 18:00:00 25,6 11,2 4 2 - - N 1019,0 45
19.09.2018 17:00:00 25,5 11,8 4 2 - - S 1019,2 45
19.09.2018 16:00:00 24,8 13,7 4 2 - - SW 1019,5 40
19.09.2018 15:00:00 24,8 13,3 7 4 - - S 1019,8 40
19.09.2018 14:00:00 23,6 15,4 4 2 - - SE 1020,3 35
19.09.2018 13:00:00 21,2 14,7 4 2 - - N 1020,9 30
19.09.2018 12:00:00 19,9 14,8 4 2 - - NW 1021,7 25
19.09.2018 11:00:00 18,0 15,8 14 8 - - W 1022,0 30
19.09.2018 10:00:00 16,8 15,0 11 6 - - W 1022,0 30
19.09.2018 09:00:00 16,2 14,8 7 4 - - SSW 1021,5 30

tt = Température de l'air
td = dewpoint
ff = Vitesse du vent
fx = gusts
dd = Direction du vent
ppp = reduced air pressure
vv = visibility

stations d'obs. à proximité